Temperature
22 19 19 20 20 21 21 21 20 20 21 20 19 19 19 19 19 19 18 18 19 19 19 19 19 19 18 18 18 18 17 17 17 17 17 16 16 16 16 16 16 16 16 16
19 20 21 22 22 22 21 20 20 20 21 21 19 19 19 19 19 19 19 19 19 19 19 19 19 19 18 18 18 17 17 17 17 17 17 16 16 16 16 16 16 16 16 16
20 21 22 22 22 21 21 20 20 20 20 20 19 18 18 19 19 19 19 19 19 19 19 19 19 18 18 18 18 17 17 17 17 17 17 16 16 16 16 16 16 16 16 16
21 22 22 22 22 21 20 21 21 21 19 18 19 17 18 18 18 18 19 19 19 19 19 19 18 18 18 18 18 17 17 17 17 17 17 16 16 16 16 16 16 16 16 16
20 21 22 21 22 22 21 21 21 20 19 18 18 17 17 17 18 18 18 19 19 19 19 19 19 19 18 18 18 17 17 17 17 17 17 16 16 16 16 16 16 16 16 15
21 22 22 22 22 22 21 20 19 18 17 17 18 17 17 17 18 18 18 19 19 19 19 19 19 19 18 18 18 17 17 17 17 17 16 16 16 16 16 16 16 16 16 15
20 21 22 22 21 21 20 17 17 17 16 17 18 18 18 18 19 19 19 19 19 19 19 19 19 18 18 18 18 18 17 17 17 17 16 16 16 16 16 16 16 16 16 16
19 19 21 22 21 20 20 18 17 17 17 17 18 18 18 19 20 20 20 19 19 19 19 19 19 19 18 18 18 18 17 17 17 17 16 16 16 16 16 16 16 16 16 16
18 19 21 22 22 21 20 18 18 17 18 17 18 18 19 19 19 19 19 19 19 19 19 19 19 19 18 18 18 18 17 17 17 17 17 16 16 16 16 16 16 16 16 16
19 19 20 21 22 21 20 19 17 17 17 17 18 18 17 18 18 18 18 19 19 19 19 19 19 19 18 18 18 18 17 17 17 17 17 17 17 16 16 16 16 16 16 16
19 18 19 20 20 20 20 19 18 16 16 16 17 17 19 18 18 18 18 19 19 19 19 19 19 19 19 18 18 18 17 17 17 17 17 17 17 16 16 16 16 16 16 16
19 17 17 19 20 21 20 20 18 17 17 16 16 17 20 19 19 19 19 19 19 19 19 19 19 19 19 18 18 18 18 17 17 17 17 17 17 16 16 16 16 16 16 16
19 17 17 18 18 19 20 20 19 17 16 16 16 18 19 19 19 19 19 19 19 19 19 19 19 19 19 18 18 18 18 17 17 17 17 17 17 16 16 16 16 16 16 16
19 17 17 17 18 18 19 20 20 18 16 17 17 18 19 18 18 19 19 19 19 19 19 19 19 19 19 18 18 18 18 17 17 17 17 17 17 17 16 16 16 16 16 16
17 17 18 18 19 19 19 20 20 19 18 17 18 18 18 18 18 19 19 19 19 19 19 19 19 19 19 18 18 18 18 18 17 17 17 17 17 16 16 16 16 16 16 16
16 17 18 18 19 19 19 19 20 20 19 19 19 18 19 20 19 19 19 19 18 19 19 19 19 19 18 18 18 18 18 18 17 17 17 17 17 16 16 16 16 16 16 16
16 16 16 16 18 19 18 19 19 19 19 19 18 18 18 18 18 18 18 19 18 18 19 19 19 18 18 18 18 18 18 18 17 17 17 17 17 16 16 16 16 16 15 15
16 15 14 15 17 17 18 19 20 19 19 19 18 18 19 19 19 19 19 19 18 18 18 18 18 18 18 18 18 18 18 18 17 17 17 17 17 16 16 16 16 16 15 15
16 16 15 14 16 17 18 19 19 19 18 18 18 18 19 19 18 18 19 19 18 18 18 18 19 19 19 18 18 18 18 17 17 17 17 17 16 16 16 16 15 15 15 15
15 15 15 14 16 16 17 19 20 19 18 18 18 18 18 18 16 16 18 18 18 18 18 18 18 18 18 18 18 18 17 17 17 17 17 17 16 16 16 16 15 15 15 15
16 15 15 14 15 15 17 19 19 17 17 18 18 18 18 18 17 19 18 18 18 18 18 18 18 18 18 18 18 18 17 17 17 17 17 16 16 16 16 16 15 15 15 15
15 14 14 14 15 15 18 18 17 17 19 19 19 19 19 19 19 19 18 18 18 18 18 18 18 18 18 18 18 18 17 17 17 17 17 16 16 16 15 15 15 15 15 14
14 15 14 14 15 17 19 19 19 19 19 19 19 19 19 18 18 18 18 18 18 18 18 18 18 18 18 18 18 17 17 17 17 17 16 16 16 16 15 15 15 14 14 14
14 15 14 14 15 17 18 19 19 19 19 19 19 19 19 18 18 18 17 17 17 17 17 17 17 17 17 17 17 17 17 17 17 17 16 16 16 15 15 15 14 14 14 14
14 14 14 14 15 16 17 18 19 19 19 19 18 18 18 18 17 17 17 17 17 17 17 17 17 17 17 17 17 17 17 17 16 16 16 16 15 15 15 14 14 14 14 14
13 14 14 14 16 15 17 18 18 18 18 18 18 17 17 17 17 17 17 17 17 17 16 16 16 16 16 16 16 16 16 16 16 16 16 15 15 15 14 14 14 13 13 13
Wind_Speed
1 4 1 5 5 4 3 2 1 3 3 2 3 4 6 7 6 7 6 7 6 6 5 4 6 6 6 6 6 6 5 4 4 3 3 3 2 1 2 3 6 8 8 8
4 2 6 4 2 2 1 2 0 1 1 1 2 3 5 6 8 9 9 8 8 6 4 4 5 6 6 6 6 5 5 4 4 3 3 3 2 1 1 3 5 7 8 7
3 4 3 1 1 1 1 3 2 1 2 3 2 3 3 3 4 6 8 8 8 9 8 6 6 6 6 6 6 6 5 4 4 4 4 4 3 3 3 3 2 4 6 7
1 3 1 2 1 2 1 2 2 2 2 2 1 2 5 3 3 6 6 7 8 8 7 7 7 7 8 7 6 6 5 4 4 5 5 5 4 3 1 1 1 2 4 5
2 1 1 1 1 2 3 2 1 1 2 1 1 2 5 1 3 6 7 7 7 9 9 8 8 9 8 7 7 6 5 4 4 5 5 6 4 3 2 2 2 2 2 3
2 2 1 2 0 2 1 4 5 5 4 2 3 3 4 3 6 6 7 7 6 8 8 8 8 7 6 6 6 6 6 4 5 5 5 6 6 5 4 3 2 1 1 1
3 4 2 1 2 3 5 6 4 5 4 4 2 2 5 6 5 7 8 8 7 6 8 8 8 8 7 6 6 6 6 5 4 5 5 6 6 6 6 4 3 3 1 1
1 4 3 2 3 3 1 6 5 2 2 4 3 1 4 3 2 4 6 7 6 6 6 9 10 10 9 8 7 7 6 5 5 6 5 5 6 4 4 4 4 4 3 2
4 4 4 2 2 5 3 2 5 5 1 1 3 2 4 3 3 3 4 6 6 7 7 8 9 10 9 9 8 8 8 6 5 5 5 5 5 5 4 4 4 3 3 3
5 2 3 1 3 2 4 4 5 3 1 1 3 2 3 3 2 2 4 6 6 6 6 7 8 10 9 9 7 7 7 7 5 5 5 5 5 5 4 4 4 4 3 3
4 3 3 1 2 3 1 1 3 3 4 4 2 5 4 7 6 6 6 7 7 7 8 8 8 8 8 7 6 6 6 5 4 4 4 4 4 4 4 4 5 4 4 4
3 4 2 5 5 4 4 4 5 3 2 3 3 6 4 5 5 6 6 6 7 8 7 7 7 7 7 7 6 6 6 6 5 5 4 5 4 4 4 4 4 4 4 4
3 5 2 5 6 3 1 1 3 4 3 3 3 5 3 0 1 3 4 4 6 7 7 7 7 7 7 7 7 6 6 6 6 5 5 5 5 5 5 4 4 4 4 4
4 4 5 7 6 4 3 3 2 4 3 3 5 5 3 2 2 3 3 4 5 7 7 8 8 7 7 7 7 7 7 6 6 6 6 6 5 5 5 4 4 4 4 4
4 2 3 5 5 4 4 4 4 4 5 6 6 6 7 7 7 6 4 3 4 5 7 8 8 7 7 6 6 6 6 6 6 7 7 6 6 5 5 5 4 4 4 4
3 2 0 2 2 2 3 5 5 5 4 4 3 5 6 4 4 3 4 4 4 5 7 7 8 7 7 8 7 6 6 6 6 7 7 6 5 5 5 5 5 5 4 4
2 3 2 3 4 1 4 6 6 4 3 4 5 6 2 2 5 6 5 5 5 5 6 6 7 8 8 8 8 8 7 6 6 7 6 6 6 6 6 6 5 5 5 4
5 3 3 1 1 4 7 5 4 5 2 3 4 3 4 5 6 6 5 6 5 4 5 6 6 7 7 7 7 7 6 6 7 7 6 6 6 6 5 5 5 5 4 4
6 6 3 3 3 5 6 3 3 4 3 3 3 2 2 2 3 1 1 3 5 5 4 5 6 6 6 7 7 7 6 6 7 7 6 6 6 6 6 6 5 4 4 4
4 5 5 4 3 6 6 6 2 4 3 4 3 4 3 4 2 4 3 2 2 2 3 4 4 4 5 6 7 7 7 7 7 8 7 6 6 7 6 6 5 4 4 4
2 2 4 5 5 6 6 4 2 4 6 4 4 4 5 5 6 5 3 2 2 2 2 3 5 5 6 6 7 7 7 8 7 7 6 6 6 7 6 5 4 5 5 5
6 5 5 5 5 7 4 3 5 6 3 2 3 4 4 3 2 1 3 2 2 2 2 3 4 5 5 6 7 7 7 7 6 6 6 6 6 6 5 5 5 5 6 5
6 7 6 7 7 6 4 5 5 5 4 4 4 3 4 3 2 2 2 2 1 2 2 2 3 4 3 5 7 8 6 6 7 7 6 5 5 4 5 6 5 4 4 4
4 2 4 3 5 4 3 3 2 3 4 4 4 3 4 3 3 2 2 1 1 1 2 2 3 3 3 3 5 6 5 6 8 8 6 6 6 5 4 4 4 4 4 4
5 3 3 4 5 3 4 3 3 2 3 3 3 3 4 4 3 3 2 2 2 1 1 2 3 3 3 3 3 3 5 6 7 6 6 5 5 6 5 4 3 4 4 5
5 6 6 7 7 6 6 5 4 4 4 4 3 1 2 3 3 3 2 3 2 2 2 2 3 3 2 3 3 2 4 6 7 6 6 5 5 5 5 5 4 3 4 5
Wind_Direction
18 77 209 222 201 194 182 172 225 247 202 145 187 203 205 192 179 177 179 189 194 204 203 165 150 138 136 131 123 127 126 124 114 102 95 90 78 56 56 67 78 85 89 94
40 293 245 227 221 136 143 136 306 308 284 154 189 234 229 198 194 187 184 190 195 197 182 163 148 142 146 145 136 135 142 136 129 126 127 126 124 100 77 59 63 76 83 89
163 256 278 118 99 100 91 154 190 222 20 39 84 335 280 240 195 189 189 185 187 183 178 175 161 155 150 152 156 154 154 147 138 126 106 86 69 51 46 47 43 52 80 85
236 274 8 78 98 128 272 238 171 149 95 284 123 276 279 237 205 200 197 188 191 189 179 172 168 166 166 166 159 151 153 155 147 132 126 126 129 131 165 148 98 58 75 84
272 278 88 113 241 151 215 221 114 141 139 354 313 170 289 234 210 219 206 198 198 190 182 177 177 173 171 165 158 157 150 153 156 148 147 140 137 147 141 105 93 67 54 77
263 274 177 188 266 130 113 42 29 45 70 340 247 172 277 229 216 211 203 196 195 187 183 179 173 163 161 159 154 152 148 154 156 150 149 150 149 148 133 126 137 110 49 45
332 320 310 94 37 11 64 71 31 8 13 273 269 156 254 250 220 194 189 192 189 175 175 175 171 168 167 165 163 159 157 163 166 158 163 165 163 159 155 165 167 157 135 115
169 288 259 208 179 189 157 129 147 187 241 291 334 216 267 273 221 173 170 172 173 175 178 182 182 179 178 175 170 166 166 172 177 171 178 178 170 166 169 175 168 169 176 186
177 254 271 231 165 141 129 163 174 147 195 294 310 324 333 16 53 114 144 153 176 182 183 187 184 182 180 178 178 174 170 172 180 176 178 178 177 176 178 179 171 174 183 164
149 213 276 292 46 28 153 156 94 109 146 292 308 272 241 252 227 194 171 177 190 187 189 188 185 186 185 184 180 173 171 176 181 173 177 176 180 184 179 163 166 170 171 151
126 147 292 353 190 206 104 96 115 131 158 157 253 277 235 206 205 197 197 193 188 187 194 191 187 185 181 176 174 170 169 170 170 173 176 169 173 167 162 160 172 170 164 153
124 126 224 258 264 199 169 166 142 146 235 164 175 268 274 194 200 190 194 203 194 189 185 183 181 175 170 174 180 182 178 178 181 177 171 171 168 158 156 168 173 162 159 154
111 110 73 343 337 341 268 208 157 144 133 156 173 266 319 95 182 192 187 198 191 179 173 171 169 173 181 183 184 188 185 189 187 173 168 166 165 164 170 175 171 157 149 143
111 123 169 198 226 225 242 253 199 144 164 201 214 239 287 256 206 211 197 188 181 175 174 172 175 183 186 186 185 187 190 191 182 168 164 172 181 177 177 169 160 151 142 139
102 157 210 232 238 214 224 234 228 206 194 193 224 216 231 222 209 204 193 176 161 172 178 179 183 187 186 183 184 187 188 190 181 169 172 184 183 174 164 158 157 151 145 146
92 137 116 289 265 239 260 248 237 228 215 209 209 243 250 228 188 194 190 173 175 184 188 188 187 186 187 188 188 187 189 191 177 175 183 183 172 165 163 162 155 148 147 148
134 128 114 258 291 356 259 231 215 214 213 184 211 241 254 167 185 194 189 180 184 193 192 188 190 193 193 191 185 186 190 180 171 176 181 177 170 167 173 167 155 156 162 156
159 141 141 190 75 234 245 240 195 180 209 207 204 228 200 191 202 192 171 172 181 187 198 203 198 199 196 189 185 181 173 171 172 175 178 175 168 169 168 160 161 165 160 156
172 157 146 145 216 265 288 276 187 172 238 238 201 210 209 144 83 352 235 189 187 190 196 203 202 197 185 181 178 167 169 171 170 177 181 181 174 170 167 168 170 162 153 155
134 141 148 154 185 231 246 265 241 128 246 274 201 189 176 114 133 251 258 224 191 179 187 196 191 179 173 181 170 162 169 172 183 187 186 179 171 172 174 175 167 153 150 155
133 128 170 184 211 252 255 271 91 151 238 265 203 189 169 177 207 226 213 203 192 190 203 184 173 182 188 177 165 169 171 187 193 180 169 166 171 174 172 165 156 151 150 144
181 178 192 173 201 244 254 134 170 212 221 190 175 174 173 195 218 181 176 189 184 197 197 176 175 193 191 171 166 171 189 195 173 159 159 165 169 170 165 156 154 150 148 146
196 190 182 189 213 237 210 194 210 179 178 186 169 172 169 163 156 152 175 200 212 197 194 186 174 183 190 178 174 182 196 175 160 156 161 163 157 155 149 153 154 146 150 156
266 181 147 206 245 248 245 219 206 191 182 178 165 160 158 156 164 161 171 194 217 216 191 175 153 162 191 188 178 184 176 160 156 159 159 153 148 142 134 138 148 150 158 164
224 181 170 222 253 267 269 236 205 172 150 142 139 144 161 154 161 170 178 198 205 213 207 163 162 172 195 178 170 168 155 149 150 153 150 146 147 145 136 130 133 149 162 172
219 192 185 218 218 201 234 244 195 164 167 160 150 132 157 164 168 170 178 193 185 187 177 163 159 154 164 153 147 145 149 151 150 150 152 153 149 147 147 141 120 89 116 127
Height
1532 1536 1541 1537 1535 1535 1537 1540 1543 1539 1533 1536 1540 1540 1538 1538 1540 1541 1542 1543 1544 1545 1547 1548 1550 1551 1552 1553 1554 1555 1556 1556 1557 1558 1558 1558 1559 1559 1559 1560 1560 1560 1560 1560
1537 1539 1532 1530 1531 1532 1535 1541 1542 1538 1534 1536 1540 1540 1537 1537 1537 1538 1539 1541 1542 1544 1546 1548 1549 1550 1552 1553 1554 1555 1556 1557 1557 1558 1558 1559 1559 1560 1560 1560 1560 1560 1560 1560
1539 1535 1528 1529 1532 1534 1536 1540 1541 1541 1537 1536 1540 1544 1540 1536 1536 1537 1538 1539 1541 1542 1544 1546 1548 1550 1551 1552 1554 1555 1556 1557 1558 1558 1559 1559 1560 1560 1560 1561 1561 1561 1561 1561
1535 1530 1529 1531 1533 1534 1541 1533 1534 1536 1544 1550 1545 1559 1544 1537 1536 1536 1537 1538 1539 1541 1543 1545 1547 1548 1550 1552 1553 1555 1556 1557 1558 1559 1559 1559 1560 1560 1561 1561 1561 1562 1562 1562
1536 1531 1531 1534 1532 1531 1534 1530 1533 1536 1542 1549 1548 1555 1550 1539 1539 1536 1535 1536 1538 1539 1541 1543 1545 1547 1549 1551 1552 1554 1555 1556 1557 1558 1559 1560 1560 1560 1561 1562 1562 1562 1562 1563
1533 1530 1529 1530 1528 1528 1529 1533 1537 1542 1548 1560 1550 1555 1553 1543 1536 1533 1533 1534 1536 1538 1540 1542 1544 1547 1549 1550 1552 1553 1555 1556 1557 1558 1559 1560 1560 1561 1561 1562 1562 1562 1563 1563
1538 1532 1529 1528 1532 1531 1533 1548 1562 1563 1567 1564 1546 1550 1548 1532 1529 1528 1530 1532 1534 1536 1539 1541 1543 1545 1547 1549 1551 1552 1554 1555 1556 1557 1558 1559 1560 1561 1561 1562 1562 1563 1563 1563
1548 1547 1532 1529 1531 1535 1537 1545 1564 1571 1570 1562 1547 1550 1540 1528 1527 1526 1528 1530 1533 1535 1537 1539 1541 1544 1546 1548 1550 1551 1552 1554 1555 1556 1557 1559 1560 1560 1561 1562 1562 1563 1563 1564
1547 1545 1529 1527 1526 1530 1537 1543 1544 1556 1558 1563 1555 1545 1536 1529 1528 1528 1528 1530 1532 1534 1536 1538 1540 1542 1544 1546 1548 1550 1551 1553 1554 1555 1557 1558 1559 1560 1561 1562 1562 1563 1563 1564
1535 1542 1532 1528 1527 1528 1531 1536 1548 1555 1565 1569 1559 1552 1548 1536 1532 1530 1529 1530 1531 1532 1534 1537 1539 1541 1543 1545 1547 1549 1550 1552 1553 1554 1556 1557 1558 1559 1560 1561 1562 1563 1563 1564
1531 1542 1539 1533 1534 1535 1535 1538 1543 1553 1556 1566 1567 1557 1532 1531 1529 1529 1529 1529 1530 1531 1533 1535 1537 1539 1542 1544 1546 1548 1549 1551 1552 1553 1555 1556 1557 1558 1559 1560 1561 1562 1563 1563
1530 1541 1546 1538 1529 1526 1529 1534 1542 1554 1555 1556 1562 1555 1526 1526 1526 1527 1527 1528 1529 1530 1532 1534 1536 1539 1541 1543 1545 1546 1548 1549 1551 1552 1554 1555 1556 1557 1558 1559 1560 1561 1562 1563
1530 1541 1553 1550 1543 1533 1532 1531 1534 1542 1550 1557 1560 1550 1526 1526 1526 1526 1527 1527 1527 1529 1531 1533 1535 1537 1539 1541 1543 1545 1547 1548 1550 1551 1552 1554 1555 1556 1557 1558 1559 1560 1561 1562
1526 1538 1547 1552 1546 1537 1535 1532 1531 1539 1550 1552 1549 1542 1532 1528 1527 1527 1526 1526 1527 1528 1530 1531 1533 1536 1538 1540 1541 1543 1545 1546 1548 1549 1551 1552 1553 1554 1555 1557 1558 1559 1560 1561
1527 1536 1535 1534 1530 1530 1531 1530 1530 1533 1537 1543 1539 1535 1530 1527 1525 1525 1525 1526 1526 1527 1528 1530 1532 1534 1536 1538 1539 1541 1543 1544 1546 1548 1549 1550 1552 1553 1554 1555 1556 1558 1559 1559
1527 1534 1534 1534 1529 1528 1530 1527 1527 1527 1529 1530 1531 1531 1524 1523 1524 1525 1525 1525 1526 1526 1527 1529 1530 1532 1534 1535 1537 1539 1541 1542 1544 1545 1547 1549 1550 1551 1552 1553 1555 1556 1557 1558
1530 1534 1540 1542 1533 1532 1536 1527 1525 1525 1524 1526 1531 1528 1522 1523 1523 1523 1523 1524 1524 1525 1526 1527 1528 1530 1531 1533 1534 1536 1538 1540 1542 1543 1545 1546 1548 1549 1550 1552 1553 1554 1555 1556
1529 1534 1542 1543 1540 1546 1531 1517 1517 1520 1522 1520 1521 1520 1520 1520 1520 1520 1521 1522 1523 1523 1524 1526 1526 1528 1529 1531 1533 1534 1536 1538 1539 1541 1543 1544 1546 1547 1548 1549 1551 1552 1553 1553
1521 1529 1539 1545 1545 1538 1525 1517 1516 1520 1522 1518 1518 1518 1518 1519 1519 1520 1520 1521 1521 1522 1523 1523 1524 1526 1527 1529 1531 1532 1534 1535 1537 1538 1540 1542 1543 1545 1546 1547 1548 1549 1550 1551
1519 1523 1535 1541 1542 1542 1527 1514 1512 1517 1523 1516 1515 1516 1516 1517 1523 1521 1519 1519 1519 1520 1521 1522 1522 1524 1525 1527 1529 1530 1531 1533 1534 1535 1537 1539 1541 1542 1543 1544 1546 1547 1548 1549
1525 1528 1533 1538 1539 1531 1517 1512 1513 1527 1525 1514 1513 1513 1514 1515 1517 1517 1517 1517 1518 1518 1519 1520 1521 1522 1523 1525 1526 1527 1529 1530 1532 1534 1535 1537 1538 1540 1541 1542 1543 1545 1546 1547
1524 1529 1531 1534 1537 1532 1511 1512 1516 1516 1512 1511 1511 1512 1513 1513 1513 1513 1514 1515 1516 1516 1517 1518 1519 1520 1522 1523 1524 1525 1526 1528 1530 1531 1533 1534 1536 1537 1539 1540 1541 1542 1543 1544
1517 1517 1519 1522 1522 1512 1509 1509 1509 1509 1509 1510 1510 1510 1511 1511 1511 1512 1512 1513 1514 1514 1515 1516 1517 1518 1520 1521 1522 1522 1524 1526 1527 1528 1530 1532 1533 1535 1536 1537 1538 1539 1541 1542
1512 1509 1512 1514 1511 1508 1508 1507 1507 1508 1508 1508 1508 1509 1509 1509 1510 1510 1510 1511 1511 1512 1513 1514 1515 1516 1517 1518 1519 1520 1522 1523 1525 1526 1527 1529 1530 1532 1534 1535 1536 1537 1538 1539
1508 1508 1510 1511 1507 1506 1505 1505 1506 1506 1506 1506 1507 1507 1507 1508 1508 1508 1508 1509 1509 1510 1511 1512 1513 1513 1515 1516 1517 1518 1520 1521 1522 1524 1525 1526 1528 1529 1531 1532 1533 1534 1535 1536
1503 1505 1507 1507 1503 1503 1503 1503 1503 1504 1504 1504 1505 1505 1506 1506 1506 1506 1506 1506 1507 1507 1509 1510 1510 1511 1512 1513 1514 1516 1517 1518 1520 1521 1522 1524 1525 1527 1528 1529 1531 1532 1533 1534